Weather History for Akron Canton, OH

Change the Weather History Date:

Friday, May 9, 2014

  Actual Average Record
Temperature  
Mean Temperature 74 °F 57 °F  
Max Temperature 82 °F 67 °F 88 °F (1936)
Min Temperature 65 °F 46 °F 26 °F (1966)
Degree Days  
Heating Degree Days 0 9  
Month to date heating degree days 79 88  
Since 1 July heating degree days 6330 5964  
Cooling Degree Days 9 1  
Month to date cooling degree days 14 3  
Year to date cooling degree days 17 9  
Growing Degree Days 23 (Base 50)    
Moisture  
Dew Point 58 °F    
Average Humidity 68    
Maximum Humidity 87    
Minimum Humidity 48    
Precipitation  
Precipitation 0.18 in 0.13 in 0.96 in (2003)
Month to date precipitation 0.59 1.16  
Year to date precipitation 12.92 12.61  
Snow  
Snow 0.00 in 0.00 in - ()
Month to date snowfall 0.0 0.1  
Since 1 July snowfall 69.9 47.5  
Snow Depth 0.00 in    
Sea Level Pressure  
Sea Level Pressure 29.92 in    
Wind  
Wind Speed 12 mph (SSW)    
Max Wind Speed 28 mph    
Max Gust Speed 28 mph    
Visibility 8 miles    
Events Rain , Thunderstorm    
T = Trace of Precipitation, MM = Missing Value Source: NWS Daily Summary

Daily Weather History Graph

Daily Weather History Graph

Search for Another Location

Airport:

Trip Planner

Search our weather history database for the weather conditions in past years. The results will help you decide how hot, cold, wet, or windy it might be!

Date:

Astronomy

May. 09, 2014 Rise Set
Actual Time 6:14 AM EDT 8:30 PM EDT
Civil Twilight 5:43 AM EDT 9:01 PM EDT
Nautical Twilight 5:06 AM EDT 9:39 PM EDT
Astronomical Twilight 4:24 AM EDT 10:20 PM EDT
Moon 3:24 PM EDT (5/9) 3:18 AM EDT (5/9)
Length of Visible Light 15h 17m
Length of Day
14h 16m
Waxing Gibbous, 73% of the Moon is Illuminated
May 9
Waxing Gibbous
May 14
Full
May 21
Last Quarter
May 28
New
Jun 5
First Quarter

Hourly Weather History & Observations

Time (EDT) Temp. Heat Index Dew Point Humidity Pressure Visibility Wind Dir Wind Speed Gust Speed Precip Events Conditions
12:51 AM 71.1 °F - 55.0 °F 57% 30.00 in 10.0 mi SSW 6.9 mph - N/A   Clear
1:51 AM 70.0 °F - 55.0 °F 59% 29.99 in 10.0 mi SSW 9.2 mph - N/A   Clear
2:51 AM 68.0 °F - 55.0 °F 63% 29.97 in 10.0 mi SSW 9.2 mph - N/A   Clear
3:51 AM 66.0 °F - 54.0 °F 65% 29.97 in 10.0 mi SSW 9.2 mph - N/A   Clear
4:51 AM 66.0 °F - 54.0 °F 65% 29.97 in 10.0 mi SSW 9.2 mph - N/A   Clear
5:51 AM 64.9 °F - 52.0 °F 63% 29.97 in 10.0 mi SSW 9.2 mph - N/A   Partly Cloudy
6:51 AM 66.0 °F - 52.0 °F 60% 29.97 in 10.0 mi South 8.1 mph - N/A   Mostly Cloudy
7:51 AM 70.0 °F - 54.0 °F 57% 29.98 in 10.0 mi SSW 9.2 mph - N/A   Mostly Cloudy
8:51 AM 72.0 °F - 54.0 °F 53% 29.98 in 10.0 mi SW 13.8 mph - N/A   Mostly Cloudy
9:51 AM 73.9 °F - 54.0 °F 50% 29.98 in 10.0 mi SW 16.1 mph - N/A   Mostly Cloudy
10:51 AM 78.1 °F - 57.9 °F 50% 29.96 in 10.0 mi SSW 18.4 mph - N/A   Mostly Cloudy
11:51 AM 78.1 °F - 57.9 °F 50% 29.94 in 10.0 mi SW 16.1 mph - N/A   Mostly Cloudy
12:51 PM 80.1 °F 80.9 °F 60.1 °F 50% 29.89 in 10.0 mi SSW 18.4 mph - N/A   Mostly Cloudy
1:46 PM 82.4 °F 83.4 °F 62.6 °F 51% 29.91 in 2.0 mi South 16.1 mph - N/A Rain , Thunderstorm Light Thunderstorms and Rain
1:51 PM 75.9 °F - 64.0 °F 67% 29.89 in 2.0 mi SW 21.9 mph - 0.06 in Rain , Thunderstorm Thunderstorms and Rain
2:41 PM 71.6 °F - 64.4 °F 78% 29.91 in 5.0 mi WSW 17.3 mph - 0.12 in Rain , Thunderstorm Light Thunderstorms and Rain
2:51 PM 72.0 °F - 64.0 °F 76% 29.89 in 7.0 mi SW 12.7 mph - 0.12 in Thunderstorm Thunderstorm
3:22 PM 69.8 °F - 64.4 °F 83% 29.89 in 8.0 mi South 8.1 mph - N/A   Overcast
3:51 PM 71.4 °F - 64.6 °F 79% 29.86 in 8.0 mi South 8.1 mph - N/A   Overcast
4:51 PM 74.3 °F - 63.7 °F 69% 29.83 in 8.0 mi SSW 9.2 mph - 0.00 in Rain Light Rain
5:51 PM 75.0 °F - 60.3 °F 60% 29.83 in 8.0 mi SSW 9.2 mph - 0.00 in   Overcast
6:51 PM 74.1 °F - 58.1 °F 57% 29.83 in 8.0 mi SW 11.5 mph - N/A   Overcast
7:51 PM 70.7 °F - 57.4 °F 63% 29.84 in 8.0 mi SW 11.5 mph - N/A   Overcast
8:51 PM 68.5 °F - 59.4 °F 72% 29.84 in 8.0 mi South 13.8 mph - 0.00 in   Overcast
9:51 PM 66.7 °F - 59.9 °F 79% 29.85 in 8.0 mi South 13.8 mph - N/A   Overcast
10:51 PM 66.0 °F - 60.3 °F 82% 29.88 in 8.0 mi South 11.5 mph - N/A   Overcast
11:51 PM 64.9 °F - 60.3 °F 85% 29.88 in 8.0 mi SSW 11.5 mph - N/A   Overcast